#timestamp,LO_Frequency,Hit,StdDev 
1513814415.1,286047004.0,N
1513814416.0,286047004.0,N
1513814435.8,286047002.5,N
1513814455.6,286047004.0,N
1513814475.5,286047002.0,N
1513814495.3,286047002.4,N
1513814515.2,286047000.2,N
1513814535.9,286047000.8,N
1513814555.7,286047000.8,N
1513814575.6,286047001.1,N
1513814595.4,286046998.9,N
1513814615.3,286046998.4,N
1513814635.1,286047001.1,N
1513814636.0,286047001.1,N
1513814655.8,286047001.1,N
1513814675.7,286047000.2,N
1513814695.5,286046999.7,N
1513814715.3,286047002.5,N
1513814735.2,286046998.3,N
1513814755.0,286047000.0,N
1513814755.9,286047000.0,N
1513814775.8,286047000.6,N
1513814795.6,286047000.8,N
1513814815.4,286047001.0,N
1513814835.3,286046999.8,N
1513814855.1,286047002.0,N
1513814875.9,286047002.6,N
1513814895.7,286047003.8,N
1513814915.5,286047001.6,N
1513814935.4,286047002.0,N
1513814955.2,286047004.1,N
1513814975.0,286047002.5,N
1513814976.0,286047002.5,N
1513814995.8,286047004.2,N
1513815015.6,286047003.6,N
1513815035.5,286047004.2,N
1513815055.3,286047001.7,N
1513815075.1,286047002.4,N
1513815095.9,286047004.3,N
1513815115.7,286047002.8,N
1513815135.6,286047002.1,N
1513815155.4,286047002.8,N
1513815175.2,286047001.8,N
1513815195.1,286047000.1,N
1513815196.0,286047000.1,N
1513815215.8,286047000.4,N
1513815235.6,286046998.2,N
1513815255.5,286047000.6,N
1513815275.3,286047000.9,N
1513815295.2,286047000.6,N
1513815315.9,286046999.8,N
1513815335.7,286047002.8,N
1513815355.6,286047002.5,N
1513815375.4,286047002.8,N
1513815395.3,286047000.3,N
1513815415.1,286047002.6,N
1513815416.0,286047002.6,N
1513815435.8,286047000.3,N
1513815455.7,286047002.8,N
1513815475.5,286047002.8,N
1513815495.4,286047001.9,N
1513815515.2,286047005.3,Y
1513815535.0,286047003.3,P
1513815535.9,286047003.3,P
1513815555.8,286047005.1,P
1513815575.6,286047007.5,Y
1513815595.5,286047001.7,P
1513815615.3,286047002.5,N
1513815635.1,286047002.3,P
1513815655.9,286047000.6,N
1513815675.7,286047000.6,N
1513815695.5,286047002.3,N
1513815715.4,286047002.0,N
1513815735.2,286047002.3,N
1513815755.1,286047000.4,N
1513815756.0,286047000.4,N
1513815775.8,286047000.2,N
1513815795.6,286047001.3,N
1513815815.5,286047004.6,Y
1513815835.3,286047003.3,P
1513815855.2,286047003.5,P
1513815875.9,286047002.9,P
1513815895.7,286047005.7,Y
1513815915.6,286046999.7,P
1513815935.4,286047002.8,N
1513815955.3,286047002.7,N
1513815975.1,286047002.7,N
1513815976.0,286047002.7,N
1513815995.8,286047000.7,N
1513816015.7,286046999.6,N
1513816035.5,286046997.1,N
1513816055.4,286046996.5,N
1513816075.2,286046997.4,N
1513816095.0,286046998.6,N
1513816095.9,286046998.6,N
1513816115.8,286047001.0,N
1513816135.6,286047000.5,N
1513816155.4,286047001.1,N
1513816175.3,286046995.4,N
1513816195.1,286046997.3,N
1513816215.9,286046997.5,N
1513816235.7,286046998.4,N
1513816255.5,286046998.8,N
1513816275.4,286046999.7,N
1513816295.2,286047001.8,N
1513816315.1,286046999.9,N
1513816316.0,286046999.9,N
1513816335.8,286047000.1,N
1513816355.6,286047003.8,N
1513816375.5,286047002.2,N
1513816395.3,286046999.0,N
1513816415.1,286046996.9,N
1513816435.9,286046999.0,N
1513816455.7,286046999.5,N
1513816475.6,286046997.1,N
1513816495.4,286046997.7,N
1513816515.2,286046997.6,N
1513816535.1,286046998.0,N
1513816536.0,286046998.0,N
1513816555.8,286046998.0,N
1513816575.7,286046995.4,N
1513816595.5,286046995.2,N
1513816615.3,286046996.9,N
1513816635.2,286046999.5,N
1513816655.0,286046998.7,N
1513816655.9,286047011.9,Y
1513816675.8,286047000.5,P
1513816695.6,286047000.4,N
1513816715.4,286047000.8,N
1513816735.3,286047001.1,N
1513816755.1,286046999.4,N
1513816775.9,286046996.8,Y
1513816795.7,286046999.4,P
1513816815.5,286046998.7,P
1513816835.4,286046998.9,N
1513816855.2,286046998.5,N
1513816875.1,286047002.4,Y
1513816876.0,286047002.4,P
1513816895.8,286046999.9,N
1513816915.6,286047002.4,N
1513816935.5,286047004.4,N
1513816955.3,286047003.9,N
1513816975.2,286047003.5,N
1513816995.9,286047003.8,N
1513817015.7,286047002.2,N
1513817035.6,286047002.7,N
1513817055.4,286047002.0,N
1513817075.2,286047003.6,N
1513817095.1,286047003.9,N
1513817096.0,286047003.9,N
1513817115.8,286047002.7,N
1513817135.7,286047002.3,N
1513817155.5,286047002.0,N
1513817175.3,286047000.4,N
1513817195.2,286046998.6,N
1513817215.0,286047001.1,N
1513817215.9,286047001.1,N
1513817235.8,286047001.1,N
1513817255.6,286046998.7,N
1513817275.4,286046999.1,N
1513817295.3,286046997.0,N
1513817315.1,286046999.6,N
1513817335.9,286046998.6,N
1513817355.7,286046999.0,N
1513817375.5,286046997.8,N
1513817395.4,286046999.3,N
1513817415.2,286046996.8,N
1513817435.0,286046997.0,N
1513817435.9,286046997.0,N
1513817455.8,286046996.5,N
1513817475.6,286046997.0,N
1513817495.5,286046996.5,N
1513817515.3,286046996.9,N
1513817535.1,286046997.7,N
1513817555.9,286046997.8,N
1513817575.7,286046999.3,N
1513817595.6,286046999.0,N
1513817615.4,286046999.3,N
1513817635.2,286046997.0,N
1513817655.1,286046999.2,N
1513817656.0,286046999.2,N
1513817675.8,286046998.3,N
1513817695.7,286046995.2,Y
1513817715.5,286046997.9,P
1513817735.3,286046996.3,P
1513817755.2,286046995.2,P
1513817775.0,286046997.5,N
1513817775.9,286046997.5,N
1513817795.8,286046998.0,N
1513817815.6,286046999.2,N
1513817835.4,286046999.1,N
1513817855.3,286046995.4,Y
1513817875.1,286046999.5,P
1513817895.8,286046998.2,N
1513817915.7,286046999.9,N
1513817935.5,286047000.1,N
1513817955.4,286046999.9,N
1513817975.2,286047000.0,N
1513817995.0,286047001.2,N
1513817995.9,286047001.2,N
